Location: Little Buffalo State Park
(40.4572°N, 77.1689°W)
Time: 19:11:29
(UTC-04:00)

Envisat - Visible Passes

Search period start: 25 March 2019 00:00
Search period end: 04 April 2019 00:00
Orbit: 764 x 766 km, 98.2° (Epoch: 25 March)

Date Brightness Start Highest point End Pass type
(mag) Time Alt. Az. Time Alt. Az. Time Alt. Az.
25 Mar 5.9 21:09:34 10° WSW 21:12:19 15° W 21:15:04 10° WNW visible
26 Mar 4.9 20:30:43 10° SSW 20:35:15 32° W 20:39:48 10° NNW visible
27 Mar 3.3 19:53:19 10° S 19:58:22 74° WSW 20:03:29 10° NNW visible
28 Mar 5.8 20:57:29 10° SW 21:00:59 19° W 21:04:30 10° NW visible
29 Mar 4.4 20:19:12 10° SSW 20:23:58 41° W 20:28:47 10° NNW visible
31 Mar 5.4 20:45:39 10° SSW 20:49:40 24° W 20:53:43 10° NW visible
01 Apr 3.9 20:07:46 10° S 20:12:43 53° W 20:17:41 10° NNW visible
02 Apr 6.0 21:13:07 10° WSW 21:15:27 13° W 21:17:48 10° WNW visible
03 Apr 5.0 20:33:58 10° SSW 20:38:22 30° W 20:42:48 10° NW visible
